Location: Eschertshofen
(49.3064°N, 11.5756°E)
Time: 01:49:39
(UTC+00:00)

Meteor 2-9 Rocket - Pass Details

Date: 18 September 2020
Orbit: 791 x 896 km, 81.3° (Epoch: 30 October)

Event Time Altitude Azimuth Distance (km) Brightness Sun altitude
Rises 17:51:04 0° 178° (S) 3,498 7.3 -5.9°
Reaches altitude 10° 17:53:33 10° 176° (S) 2,561 6.6 -6.3°
Maximum altitude 17:59:18 62° 97° (E) 996 4.3 -7.3°
Drops below altitude 10° 18:05:01 10° 18° (NNE) 2,543 6.6 -8.2°
Sets 18:07:28 0° 15° (NNE) 3,472 7.4 -8.6°
